Regional Weather Roundup
Issued by NWS

Home | Current Version | Previous Version | Text Only | Print | Product List | Glossary On
Versions: 1 2 3 4 5 6 7 8 9 10 11 12 13 14 15 16 17 18 19 20 21 22 23 24 25 26 27
000
ASUS42 KTBW 180017
RWRFL
FLORIDA REGIONAL WEATHER ROUNDUP
NATIONAL WEATHER SERVICE TAMPA BAY RUSKIN FL
800 PM EDT THU AUG 17 2017

NOTE: "FAIR" INDICATES FEW OR NO CLOUDS BELOW 12,000 FEET WITH NO
SIGNIFICANT WEATHER AND/OR OBSTRUCTIONS TO VISIBILITY.

FLZ001>010-012>015-112-114-115-180100-
PANHANDLE FLORIDA

CITY           SKY/WX    TMP DP  RH WIND       PRES   REMARKS
PENSACOLA      CLOUDY    91  76  61 W9        30.01R HX 103
PENSACOLA NAS  PTCLDY    87  77  72 W5        30.01R HX  99
MILTON NAS     CLOUDY    88  78  72 CALM      30.01  HX 101
CRESTVIEW      PTCLDY    85  76  74 CALM      30.03R
DUKE FIELD     MOCLDY    86  75  70 S6        30.02R
VALPARAISO     PTCLDY    87  76  69 SW7       30.01R HX  98
MARY ESTHER    PTCLDY    87  74  64 SW6       30.00R HX  95
PANAMA CITY    FAIR      84  77  79 MISG      30.00S
TYNDALL AFB    CLEAR     87  78  74 W10       30.01S HX  98
APALACHICOLA   PTCLDY    87  77  72 W7        30.00S HX  99

STATION/POSITION SKY/WX   TEMP    WIND        PRES    WAVE   SWELL
                          AIR SEA DIR/SP/G            HT/PER HT/PER
                          (F)     (DEG/KT/KT) (MB)    (FT/S) (FT/S)
30.1N   87.6W              87 88  250/ 10/ 12 1016.0    1/ 4
29.2N   88.2W              87 89  260/  6/  8 1016.8F   1/ 6   2/ 6
28.8N   86.0W              86 88  300/  6/  8 1016.7F   1/ 7   2/ 7
PANAMA CITY BEAC           86     290/ 11/ 12 1016.7R
TOWER C                    85                 1017.0S
28.5N   84.5W              86 87  270/  6/  8 1016.6R   1

$$
FLZ011-016>038-118-127-128-134-139-239-180100-
NORTH FLORIDA

CITY           SKY/WX    TMP DP  RH WIND       PRES   REMARKS
MARIANNA       CLEAR     91  75  59 N3        29.99S HX 101
TALLAHASSEE    CLOUDY    92  74  55 NW6       29.99S HX 101
PERRY          MOCLDY   N/A N/A N/A S5        30.01R
LIVE OAK       CLEAR     84  77  79 CALM      30.01F
CROSS CITY     CLOUDY    85  78  78 SW5       30.05S HX  97
LAKE CITY      FAIR      79  79 100 SE3       30.01S
GAINESVILLE    CLOUDY    77  74  90 SE6       30.04R
WILLISTON      CLEAR     81  79  94 CALM      30.02S
PALATKA        FAIR      75  75 100 CALM      30.01S
MAYPORT NAS    PTCLDY    84  76  76 SW6       30.00R
JACKSONVILLE   MOCLDY    82  78  88 SW3       30.00R
JAX NAS        MOCLDY    84  77  79 W5        30.01R
JAX CECIL      PTCLDY    79  77  94 CALM      30.00S
FERNANDINA BEA FAIR      86  73  66 SW7       29.99R
ST AUGUSTINE   CLEAR     81  76  84 W5        30.02R
PALM COAST     FAIR      80  76  89 SW3       30.01S

STATION/POSITION SKY/WX   TEMP    WIND        PRES    WAVE   SWELL
                          AIR SEA DIR/SP/G            HT/PER HT/PER
                          (F)     (DEG/KT/KT) (MB)    (FT/S) (FT/S)
SHELL POINT      NOT AVBL
KEATON BEACH               87     250/ 10/ 11 1015.8R
CEDAR KEY                  86     270/  5/  7 1016.7R
FERNANDINA                 86 84  260/  3/  4 1016.4R
30.7N   81.3W                 86                N/A     1/10
MAYPORT                    85 83  220/  5/  7 1016.1F
31.4N   80.9W              86 86  210/ 12/ 12 1015.5R   1/ 3
ST AUGUSTINE               81 83  200/  4/  4 1016.5R

$$
FLZ040-043>046-052-053-057-058-063-144-180100-
INTERIOR CENTRAL FLORIDA

CITY           SKY/WX    TMP DP  RH WIND       PRES   REMARKS
OCALA          MOCLDY    78  77  96 CALM      30.02S
THE VILLAGES     N/A     79  79 100 CALM      29.93S
LEESBURG       PTCLDY    82  77  84 CALM      30.03S
SANFORD        CLEAR     79  75  87 SW5       30.03R
ORLANDO EXEC   MOCLDY    79  78  97 SE6       30.03S
ORLANDO INTL   MOCLDY    74  74 100 S7        30.05R
KISSIMMEE      LGT RAIN  77  75  93 S5        30.06R
WINTER HAVEN   LGT RAIN  77  74  90 SE7       30.07R
LAKELAND       MOCLDY    79  75  89 SE8       30.05R
BARTOW         FAIR      75 N/A N/A SE10      30.07R
SEBRING        CLOUDY    76  72  87 W9G22     30.09R
OKEECHOBEE     PTCLDY    77  73  88 CALM      30.04R

$$
FLZ041-047-054-059-064-141-147-180100-
EAST CENTRAL FLORIDA

CITY           SKY/WX    TMP DP  RH WIND       PRES   REMARKS
DAYTONA BEACH  PTCLDY    81  77  88 CALM      30.01F
DELAND         CLEAR     81  75  83 E3        30.01F
NEW SMYRNA BEA PTCLDY    84  73  70 CALM      30.02F
JFK SPACE CTR  CLEAR     81  76  83 W3        30.02R
TITUSVILLE     MOCLDY    81  79  94 SW8       30.04S
CAPE CANAVERAL CLEAR     84  74  73 S5        30.02S
PATRICK AFB    PTCLDY    82  75  77 W10       30.03R
MELBOURNE      CLOUDY    80  74  81 W8        30.04R
VERO BEACH     CLEAR     85  74  69 SE6       30.03R
FT PIERCE      CLEAR     85  77  77 SE8       30.03R HX  95
STUART         PTCLDY    86  77  74 SE5       30.05R HX  97

STATION/POSITION SKY/WX   TEMP    WIND        PRES    WAVE   SWELL
                          AIR SEA DIR/SP/G            HT/PER HT/PER
                          (F)     (DEG/KT/KT) (MB)    (FT/S) (FT/S)
28.5N   80.2W              86 87  160/ 10/ 12 1017.6F   1/ 9   2/ 9
28.9N   78.5W              85 86  200/  6/  8 1017.2R   2/ 9   2/ 9
TRIDENT PIER               83 85  150/  1/  2 1018.3F
28.4N   80.5W                 84                N/A     1/ 9
27.5N   80.2W                 83                N/A     1/10

$$
FLZ050-056-061-142-242-148-248-149-249-151-251-155-255-
160-260-180100-
WEST CENTRAL FLORIDA

CITY           SKY/WX    TMP DP  RH WIND       PRES   REMARKS
CRYSTAL RIVER  LGT RAIN  81  77  89 CALM      30.01S
INVERNESS      FAIR      81  81 100 CALM      30.03R
BROOKSVILLE    CLEAR     81  79  94 S5        30.03S
CLEARWATER AIR FAIR      84  73  70 N5        30.02S
ST PETE CLEARW CLOUDY    86  77  74 E5        30.02S HX  97
TAMPA INTL     CLOUDY    85  77  77 CALM      30.03R HX  95
TAMPA EXEC     CLOUDY    81  77  89 CALM      30.04S
PLANT CITY     LGT RAIN  79  77  94 SE3       30.07R
MACDILL AFB    CLOUDY    82  81  98 CALM      30.03R
PETER O KNIGHT CLOUDY    82  82 100 CALM      30.04R HX  97
ST PETERSBURG  CLOUDY    85  78  80 E5        30.01S HX  96
SARASOTA       CLOUDY    83  77  82 NE5       30.02R
VENICE         FAIR      88  75  66 N6        30.03S HX  97

STATION/POSITION SKY/WX   TEMP    WIND        PRES    WAVE   SWELL
                          AIR SEA DIR/SP/G            HT/PER HT/PER
                          (F)     (DEG/KT/KT) (MB)    (FT/S) (FT/S)
CLEARWATER BEACH           86 92  340/  6/  7 1017.0R
MIDDLE TAMPA BAY           84      80/  7/  7 1017.0R
VENICE                     87 91  320/  9/ 10 1016.7R

$$
FLZ066-069-070-075>078-162-262-165-265-180100-
SOUTHWEST FLORIDA AND KEYS

CITY           SKY/WX    TMP DP  RH WIND       PRES   REMARKS
PUNTA GORDA    CLOUDY    82  73  74 CALM      30.05R
FT MYERS       CLOUDY    79  77  94 SE3       30.04R
SOUTHWEST INTL MOCLDY    80  73  79 SW3       30.05R
NAPLES         CLOUDY    80  74  81 NE6       30.05R
MARCO ISLAND   MOCLDY   N/A N/A N/A N8        30.05R
IMMOKALEE      CLOUDY    77  73  88 NW9       30.07R
MARATHON       CLOUDY    87  77  72 CALM      30.02R HX  99
KEY WEST INTL  CLOUDY    87  76  69 SE7       30.03R HX  97

STATION/POSITION SKY/WX   TEMP    WIND        PRES    WAVE   SWELL
                          AIR SEA DIR/SP/G            HT/PER HT/PER
                          (F)     (DEG/KT/KT) (MB)    (FT/S) (FT/S)
NAPLES                        92  280/ 15/ 24 1017.4R
DRY TORTUGAS               86      60/  6/  7 1017.0R
SAND KEY                   85      30/  2/  6 1017.4R
MOLASSES REEF              86 88   90/  8/  9 1016.2S

$$
FLZ067-068-071>074-168-172>174-180100-
SOUTHEAST FLORIDA

CITY           SKY/WX    TMP DP  RH WIND       PRES   REMARKS
W PALM BEACH   PTCLDY    89  74  60 SE7       30.04R HX  98
BOCA RATON     PTCLDY    86  75  70 SE7       30.03R HX  95
FT LAUDER-EXEC PTCLDY    86  76  71 SE7       30.02R HX  96
FT LAUDERDALE  CLOUDY    86  75  69 SE10      30.01S HX  95
POMPANO BEACH  MOCLDY    87  76  69 E8        30.03R HX  97
PEMBROKE PINES CLOUDY    88  73  61 E7        30.03  HX  95
OPA LOCKA      CLOUDY    87  75  67 E7        30.02S HX  96
MIAMI          CLOUDY    88  74  63 E7        30.02S HX  96
WEST KENDALL   CLOUDY    86  74  67 E7        30.02R
HOMESTEAD      CLOUDY    85  79  81 NE3       30.01R HX  97

STATION/POSITION SKY/WX   TEMP    WIND        PRES    WAVE   SWELL
                          AIR SEA DIR/SP/G            HT/PER HT/PER
                          (F)     (DEG/KT/KT) (MB)    (FT/S) (FT/S)
PORT EVERGLADES            87     130/  4/  8 1016.8R
VIRGINIA KEY               86 92   50/  5/  7 1016.2R
LAKE WORTH                        130/  8/  9   N/A
FOWEY ROCKS                85 88   60/  7/  8 1017.1R
SETTLEMENT POINT           85     150/  3/  3 1017.4F

$$





USA.gov is the U.S. government's official web portal to all federal, state and local government web resources and services.